This demonstration page uses our WeatherBlox Daily Observations layout. Learn more.

Left ArrowRight Arrow

Hourly Observations for June 26, 2016

Temp ( °F °C ) Dew Point ( °F °C ) Humidity (%) Winds ( mph kmh ) Pressure ( in mb ) Visibility ( mi km ) Precip ( " mm )
12:51 am 00:51 Clear 83 28.3 52 11.1 34 34 E 9 15 29.79 1009 10 16 0.00 0.00
1:51 am 01:51 Clear 84 28.9 52 11.1 33 33 E 10 17 29.79 1009 10 16 0.00 0.00
2:51 am 02:51 Clear 83 28.3 52 11.1 34 34 E 8 13 29.79 1009 10 16 0.00 0.00
3:51 am 03:51 Clear 82 27.8 52 11.1 35 35 E 6 9 29.80 1009 10 16 0.00 0.00
4:51 am 04:51 Clear 79 26.1 52 11.1 39 39 SSE 6 9 29.81 1010 10 16 0.00 0.00
5:51 am 05:51 Sunny 80 26.7 52 11.1 38 38 Calm 29.83 1010 10 16 0.00 0.00
6:51 am 06:51 Sunny 81 27.2 53 11.7 38 38 E 3 6 29.86 1011 10 16 0.00 0.00
7:51 am 07:51 Mostly Cloudy 82 27.8 55 12.8 40 40 SSE 6 9 29.89 1012 10 16 0.00 0.00
8:51 am 08:51 Cloudy 84 28.9 54 12.2 36 36 SSE 9 15 29.90 1013 10 16 0.00 0.00
9:51 am 09:51 Mostly Cloudy 87 30.6 53 11.7 31 31 SE 9 15 29.90 1013 10 16 0.00 0.00
10:51 am 10:51 Partly Cloudy 89 31.7 53 11.7 29 29 S 8 13 29.89 1012 10 16 0.00 0.00
11:51 am 11:51 Sunny 93 33.9 52 11.1 25 25 WSW 8 13 29.88 1012 10 16 0.00 0.00
12:51 pm 12:51 Sunny 95 35 51 10.6 23 23 VRB 5 7 29.85 1011 10 16 0.00 0.00
1:51 pm 13:51 Sunny 96 35.6 51 10.6 22 22 W 13 20 29.82 1010 10 16 0.00 0.00
2:51 pm 14:51 Sunny 97 36.1 49 9.4 20 20 VRB 7 11 29.80 1009 10 16 0.00 0.00
3:51 pm 15:51 Sunny 99 37.2 48 8.9 18 18 W 6 9 29.78 1009 10 16 0.00 0.00
4:46 pm 16:46 Mostly Sunny 91 33 52 11 26 26 NNE 33 54 29.68 1005 8 13 0.00 0.00
4:51 pm 16:51 Mostly Sunny 92 33.3 51 10.6 25 25 NNE 31 50 29.80 1009 9 14 0.00 0.00
5:51 pm 17:51 Sunny 91 32.8 49 9.4 24 24 NE 30 48 29.81 1010 10 16 0.00 0.00
6:51 pm 18:51 Mostly Cloudy 91 32.8 48 8.9 23 23 NE 15 24 29.84 1011 10 16 0.00 0.00
7:51 pm 19:51 Clear 85 29.4 52 11.1 32 32 SE 15 24 29.92 1013 10 16 0.00 0.00
8:02 pm 20:02 Clear 83 28.3 56 13.3 40 40 SSE 16 26 29.85 1011 10 16 0.00 0.00
8:51 pm 20:51 Clear 82 27.8 56 13.3 41 41 ESE 13 20 29.91 1013 10 16 0.00 0.00
9:51 pm 21:51 Clear 82 27.8 57 13.9 42 42 Calm 29.91 1013 10 16 0.00 0.00
10:51 pm 22:51 Clear 81 27.2 56 13.3 42 42 SSE 8 13 29.90 1012 10 16 0.00 0.00
11:51 pm 23:51 Clear 82 27.8 53 11.7 37 37 SSE 6 9 29.89 1012 10 16 0.00 0.00

Powered by AerisWeather